X  Close Mostly cloudy throughout the day.
Conditions Temperature Feels Precipitation Wind Wind Direction UV index Pressure
17:00 clear-day Clear 77° - 10-10 mph SE SE uv-1 1016,77
18:00 clear-day Clear 75° - 9-10 mph SE SE - 1016,52
19:00 clear-night Clear 72° - 8-9 mph ESE ESE - 1016,78
20:00 clear-night Clear 69° - 8-14 mph SE SE - 1016,99
21:00 clear-night Clear 67° - 8-18 mph ESE ESE - 1018,34
22:00 clear-night Clear 66° 0 in 1% 7-18 mph ESE ESE - 1018,21
23:00 clear-night Clear 65° - 7-17 mph ESE ESE - 1018,44
00:00 clear-night Clear 64° 0 in 1% 6-16 mph ESE ESE - 1017,69
01:00 clear-night Clear 63° - 6-15 mph ESE ESE - 1017,24
02:00 clear-night Clear 62° 0 in 1% 6-14 mph East Easterly - 1016,99
03:00 clear-night Clear 62° 0 in 2% 6-14 mph East Easterly - 1016,83
04:00 partly-cloudy-night Partly Cloudy 62° 0 in 2% 6-13 mph East Easterly - 1016,64
05:00 partly-cloudy-night Partly Cloudy 61° 0 in 2% 6-13 mph East Easterly - 1016,63
06:00 partly-cloudy-night Partly Cloudy 60° 0 in 2% 6-13 mph East Easterly - 1016,82
07:00 partly-cloudy-night Partly Cloudy 61° 0 in 2% 6-14 mph East Easterly - 1017,07
08:00 partly-cloudy-day Partly Cloudy 62° 0 in 2% 7-14 mph East Easterly - 1017,79
09:00 partly-cloudy-day Partly Cloudy 65° 0 in 2% 7-16 mph East Easterly uv-1 1018,50
10:00 partly-cloudy-day Mostly Cloudy 68° - 8-17 mph East Easterly uv-2 1018,74
11:00 partly-cloudy-day Mostly Cloudy 72° - 9-17 mph ESE ESE uv-4 1018,34
12:00 partly-cloudy-day Mostly Cloudy 76° - 10-16 mph ESE ESE uv-5 1017,59
13:00 partly-cloudy-day Mostly Cloudy 79° 0 in 2% 11-16 mph ESE ESE uv-5 1016,76
14:00 partly-cloudy-day Mostly Cloudy 80° - 11-17 mph ESE ESE uv-5 1015,96
15:00 partly-cloudy-day Mostly Cloudy 80° 0 in 1% 12-17 mph SE SE uv-4 1015,04
16:00 partly-cloudy-day Mostly Cloudy 79° 0 in 1% 12-18 mph SE SE uv-2 1014,44
17:00 partly-cloudy-day Mostly Cloudy 78° 0 in 1% 12-19 mph ESE ESE uv-1 1014,48
18:00 partly-cloudy-day Mostly Cloudy 76° - 11-20 mph ESE ESE - 1014,69
19:00 partly-cloudy-night Mostly Cloudy 74° 0 in 4% 10-21 mph ESE ESE - 1014,60
20:00 partly-cloudy-night Mostly Cloudy 73° 0 in 5% 10-21 mph ESE ESE - 1014,73
21:00 partly-cloudy-night Mostly Cloudy 72° 0.01 in 8% 10-21 mph ESE ESE - 1015,01
22:00 cloudy Overcast 71° 0.02 in 14% 10-20 mph ESE ESE - 1015,15
23:00 cloudy Overcast 71° 0.03 in 25% 10-18 mph ESE ESE - 1015,11
00:00 rain Possible Light Rain 70° 0.05 in 40% 9-17 mph East Easterly - 1014,96
01:00 rain Possible Light Rain 70° 0.07 in 48% 9-15 mph East Easterly - 1014,74
02:00 rain Possible Light Rain 69° 0.09 in 57% 8-13 mph ENE ENE - 1014,37
03:00 rain Rain 68° 0.13 in 71% 7-11 mph ENE ENE - 1013,94
04:00 rain Rain 66° 0.15 in 80% 8-11 mph NE NE - 1013,79
05:00 rain Rain 65° 0.12 in 83% 9-12 mph NNE NNE - 1014,11
06:00 rain Light Rain 63° 0.08 in 83% 11-15 mph NNE NNE - 1014,68
07:00 rain Light Rain 61° 0.08 in 82% 12-18 mph North North - 1015,23
08:00 rain Light Rain 60° 0.09 in 84% 13-20 mph North North - 1015,68
09:00 rain Rain 59° 0.13 in 86% 13-22 mph North North uv-1 1016,10
10:00 rain Rain 59° 0.16 in 86% 13-23 mph NNE NNE uv-2 1016,40
11:00 rain Rain 60° 0.16 in 80% 13-24 mph NNE NNE uv-3 1016,56
12:00 rain Rain 61° 0.14 in 74% 13-25 mph North North uv-4 1016,61
13:00 rain Rain 62° 0.1 in 68% 14-26 mph North North uv-4 1016,47
14:00 rain Possible Light Rain 62° 0.05 in 62% 14-26 mph North North uv-4 1015,95
15:00 rain Possible Drizzle 62° 0.01 in 38% 14-26 mph North North uv-3 1015,23
16:00 cloudy Overcast 61° 0.01 in 17% 14-27 mph North North uv-2 1014,79
17:00 cloudy Overcast 61° 0 in 11% 13-26 mph North North uv-1 1014,86